Williston, ND

11:47 AM CDT on September 29, 2016 (GMT -0500)
Sloulin International

Weather History for KISN - May, 2013

Change the Weather History Date:

Saturday, May 25, 2013

  Actual Average Record
Temperature  
Mean Temperature 54 °F 57 °F  
Max Temperature 68 °F 70 °F 93 °F (1931)
Min Temperature 39 °F 44 °F 27 °F (1992)
Degree Days  
Heating Degree Days 11 9  
Month to date heating degree days 307 303  
Since 1 July heating degree days 9252 8828  
Cooling Degree Days 0 1  
Month to date cooling degree days 8 1  
Year to date cooling degree days 8 2  
Growing Degree Days 4 (Base 50)    
Moisture  
Dew Point 50 °F    
Average Humidity 82    
Maximum Humidity 100    
Minimum Humidity 63    
Precipitation  
Precipitation T in 0.07 in 1.52 in (1965)
Month to date precipitation 1.52 1.47  
Year to date precipitation 4.34 4.16  
Snow  
Snow 0.00 in - - ()
Month to date snowfall 0.0  
Snow Depth 0.00 in    
Sea Level Pressure  
Sea Level Pressure 29.98 in    
Wind  
Wind Speed 9 mph (ENE)    
Max Wind Speed 31 mph    
Max Gust Speed 43 mph    
Visibility 7 miles    
Events Rain , Thunderstorm    
T = Trace of Precipitation, MM = Missing Value Source: NWS Daily Summary

Daily Weather History Graph

Daily Weather History Graph

Search for Another Location

Airport or City:

Trip Planner

Search our weather history database for the weather conditions in past years. The results will help you decide how hot, cold, wet, or windy it might be!

Date:

Astronomy

May. 25, 2013 Rise Set
Actual Time 6:03 AM CDT 9:39 PM CDT
Civil Twilight 5:24 AM CDT 10:19 PM CDT
Nautical Twilight 4:32 AM CDT 11:11 PM CDT
Astronomical Twilight 3:20 AM CDT 12:24 AM CDT
Moon 10:29 PM CDT (5/25) 6:34 AM CDT (5/25)
Length of Visible Light 16h 54m
Length of Day
15h 36m
Full, 100% of the Moon is Illuminated
May 25
Full
May 31
Last Quarter
Jun 8
New
Jun 16
First Quarter
Jun 23
Full

Hourly Weather History & Observations

Time (CDT) Temp. Windchill Dew Point Humidity Pressure Visibility Wind Dir Wind Speed Gust Speed Precip Events Conditions
12:52 AM 45.0 °F 42.6 °F 42.1 °F 90% 30.03 in 10.0 mi NNE 4.6 mph - N/A   Clear
1:52 AM 43.0 °F - 39.9 °F 89% 30.02 in 10.0 mi Calm Calm - N/A   Clear
2:52 AM 43.0 °F 41.3 °F 42.1 °F 97% 30.01 in 10.0 mi North 3.5 mph - N/A   Clear
3:52 AM 43.0 °F 41.3 °F 43.0 °F 100% 30.02 in 7.0 mi ENE 3.5 mph - N/A   Clear
4:52 AM 41.0 °F 38.0 °F 41.0 °F 100% 30.01 in 4.0 mi NNE 4.6 mph - N/A   Clear
5:52 AM 39.9 °F - 39.9 °F 100% 30.01 in 3.0 mi Calm Calm - N/A   Clear
5:59 AM 39.2 °F - 39.2 °F 100% 29.99 in 2.5 mi Calm Calm - N/A   Clear
6:22 AM 41.0 °F 39.0 °F 41.0 °F 100% 30.00 in 3.0 mi ENE 3.5 mph - N/A   Clear
6:52 AM 43.0 °F - 43.0 °F 100% 30.04 in 3.0 mi Calm Calm - N/A   Scattered Clouds
6:59 AM 44.6 °F - 42.8 °F 93% 30.03 in 2.5 mi Calm Calm - N/A   Scattered Clouds
7:11 AM 44.6 °F 40.7 °F 44.6 °F 100% 30.02 in 3.0 mi NNE 6.9 mph - N/A   Scattered Clouds
7:21 AM 46.4 °F 42.4 °F 46.4 °F 100% 30.02 in 2.5 mi North 8.1 mph - N/A   Partly Cloudy
7:27 AM 46.4 °F 42.9 °F 46.4 °F 100% 30.02 in 3.0 mi North 6.9 mph - N/A   Partly Cloudy
7:52 AM 48.9 °F - 48.0 °F 97% 30.02 in 3.0 mi NE 8.1 mph - N/A   Overcast
8:14 AM 48.2 °F - 48.2 °F 100% 30.01 in 3.0 mi North 4.6 mph - N/A   Mostly Cloudy
8:25 AM 51.8 °F - 50.0 °F 94% 30.01 in 3.0 mi North 4.6 mph - N/A   Mostly Cloudy
8:41 AM 51.8 °F - 51.8 °F 100% 30.00 in 4.0 mi NNE 6.9 mph - N/A   Mostly Cloudy
8:52 AM 53.1 °F - 51.1 °F 93% 30.01 in 5.0 mi NE 10.4 mph - N/A   Scattered Clouds
9:52 AM 55.0 °F - 53.1 °F 93% 30.02 in 6.0 mi ENE 5.8 mph - N/A   Partly Cloudy
10:52 AM 53.1 °F - 51.1 °F 93% 30.01 in 6.0 mi ENE 6.9 mph - N/A   Clear
11:52 AM 55.9 °F - 52.0 °F 87% 29.98 in 7.0 mi North 4.6 mph - N/A   Partly Cloudy
12:52 PM 64.0 °F - 52.0 °F 65% 29.97 in 10.0 mi SE 10.4 mph 16.1 mph N/A   Scattered Clouds
1:52 PM 64.9 °F - 52.0 °F 63% 29.98 in 10.0 mi NE 12.7 mph - N/A   Overcast
2:52 PM 66.9 °F - 54.0 °F 63% 29.96 in 10.0 mi NE 18.4 mph 25.3 mph N/A   Clear
3:33 PM 66.2 °F - 57.2 °F 73% 29.95 in 10.0 mi East 12.7 mph 19.6 mph 0.00 in Rain , Thunderstorm Light Rain
3:52 PM 64.9 °F - 57.9 °F 78% 29.96 in 10.0 mi East 10.4 mph 19.6 mph 0.00 in Rain , Thunderstorm Light Rain
3:58 PM 62.6 °F - 57.2 °F 82% 29.94 in 10.0 mi ESE 16.1 mph 21.9 mph 0.00 in Rain Light Rain
4:03 PM 64.4 °F - 57.2 °F 77% 29.95 in 10.0 mi ESE 17.3 mph 23.0 mph 0.00 in Rain , Thunderstorm Light Rain
4:21 PM 60.8 °F - 57.2 °F 88% 29.96 in 7.0 mi SSE 13.8 mph 24.2 mph 0.00 in Thunderstorm Mostly Cloudy
4:27 PM 62.6 °F - 57.2 °F 82% 29.97 in 7.0 mi South 15.0 mph 21.9 mph 0.00 in Thunderstorm Mostly Cloudy
4:44 PM 64.4 °F - 55.4 °F 73% 29.96 in 10.0 mi SE 13.8 mph 33.4 mph 0.00 in Thunderstorm Mostly Cloudy
4:52 PM 66.0 °F - 57.0 °F 73% 29.96 in 10.0 mi East 23.0 mph 32.2 mph 0.00 in Thunderstorm Mostly Cloudy
5:25 PM 64.4 °F - 55.4 °F 73% 29.90 in 10.0 mi ESE 24.2 mph 36.8 mph N/A   Clear
5:52 PM 64.0 °F - 55.0 °F 73% 29.91 in 10.0 mi SE 19.6 mph 38.0 mph N/A   Clear
6:52 PM 64.9 °F - 55.0 °F 70% 29.88 in 10.0 mi ESE 12.7 mph 27.6 mph N/A   Clear
7:52 PM 64.9 °F - 55.0 °F 70% 29.90 in 10.0 mi ESE 18.4 mph 29.9 mph N/A   Clear
8:52 PM 62.1 °F - 54.0 °F 75% 29.90 in 10.0 mi SE 9.2 mph - N/A   Clear
9:52 PM 61.0 °F - 48.9 °F 64% 29.90 in 10.0 mi SE 17.3 mph 24.2 mph N/A   Clear
10:52 PM 59.0 °F - 52.0 °F 78% 29.94 in 10.0 mi ESE 8.1 mph - N/A   Clear
11:52 PM 57.9 °F - 52.0 °F 81% 29.98 in 10.0 mi ENE 3.5 mph - N/A   Clear